Date String (YYYY-MM-DD hh:mm:ss) UTC,Instrument flags,absolute air pressure of the measurement (hPa),sample flow rate (lpm),inlet stack bypass flow (lpm),air temperature of the measurement (°C),ambient temperature measured by the external sensor (°C),aerosol sample conditioner tube jacket temperature (°C),OPC LED temperature (°C),internal box temperature (°C),relative humidity of the measurement (%),span deviation,mass concentration of particles derived from Lorenz-Mie calculation of OPC scattering (μg/m³),mass concentration of particles derived from Lorenz-Mie calculation of OPC scattering (μg/m³),mass concentration of particles derived from Lorenz-Mie calculation of OPC scattering (μg/m³)
DateTimeUTC,F1_M11,P_M11,Q1_M11,Q2_M11,T1_M11,T2_M11,T3_M11,T4_M11,T5_M11,U1_M11,ZSPAN_M11,X2_M11,X0_M11,X1_M11
2024-01-11 03:00:00,SystemResetWarning,0811.8,5.02,000.00,018.9,018.4,000.0,027.2,020.0,9.5,0000.0,0002.08,0004.41,0001.81
2024-01-11 03:01:00,SystemResetWarning,0811.8,5.00,000.00,018.8,018.2,000.0,027.2,020.0,9.6,0000.0,0002.07,0003.77,0001.80
2024-01-11 03:02:00,SystemResetWarning,0812.0,5.00,000.00,018.8,018.0,000.0,027.2,020.0,9.6,0000.0,0002.07,0003.90,0001.76
2024-01-11 03:03:00,SystemResetWarning,0812.0,4.99,000.00,018.8,017.9,000.0,027.2,020.0,9.6,0000.0,0002.04,0003.92,0001.71
2024-01-11 03:04:00,SystemResetWarning,0812.0,4.99,000.00,018.8,017.8,000.0,027.2,020.0,9.5,0000.0,0002.02,0003.83,0001.69
2024-01-11 03:05:00,SystemResetWarning,0811.9,5.00,000.00,018.8,017.7,000.0,027.2,020.0,9.6,0000.0,0002.00,0003.81,0001.66
2024-01-11 03:06:00,SystemResetWarning,0811.8,5.01,000.00,018.7,017.6,000.0,027.3,020.0,9.6,0000.0,0001.99,0003.50,0001.64
2024-01-11 03:07:00,SystemResetWarning,0811.8,5.01,000.00,018.7,017.5,000.0,027.3,020.0,9.6,0000.0,0001.96,0003.03,0001.60
2024-01-11 03:08:00,SystemResetWarning,0811.7,4.99,000.00,018.7,017.4,000.0,027.3,020.0,9.6,0000.0,0001.90,0002.80,0001.55
2024-01-11 03:09:00,SystemResetWarning,0811.7,4.99,000.00,018.7,017.3,000.0,027.3,020.0,9.6,0000.0,0001.80,0003.29,0001.47
2024-01-11 03:10:00,SystemResetWarning,0811.6,4.99,000.00,018.7,017.3,000.0,027.3,020.0,9.6,0000.0,0001.69,0003.21,0001.39
2024-01-11 03:11:00,SystemResetWarning,0811.6,5.01,000.00,018.7,017.3,000.0,027.3,020.0,9.6,0000.0,0001.61,0003.11,0001.31
2024-01-11 03:12:00,SystemResetWarning,0811.6,5.01,000.00,018.7,017.2,000.0,027.3,020.0,9.6,0000.0,0001.54,0003.00,0001.25
2024-01-11 03:13:00,SystemResetWarning,0811.6,5.00,000.00,018.7,017.2,000.0,027.3,020.1,9.6,0000.0,0001.45,0002.78,0001.21
2024-01-11 03:14:00,SystemResetWarning,0811.6,5.00,000.00,018.8,017.9,000.0,027.2,020.4,9.5,0000.0,0001.41,0002.71,0001.18
2024-01-11 03:15:00,SystemResetWarning,0811.7,4.99,000.00,018.9,018.8,000.0,027.2,020.8,9.5,0000.0,0001.33,0002.66,0001.13
2024-01-11 03:16:00,SystemResetWarning,0811.6,4.99,000.00,019.0,018.9,000.0,027.2,020.5,9.4,0000.0,0001.30,0002.60,0001.10
2024-01-11 03:17:00,SystemResetWarning,0811.6,5.00,000.00,019.0,018.8,000.0,027.2,020.2,9.4,0000.0,0001.26,0002.56,0001.05
2024-01-11 03:18:00,SystemResetWarning,0811.6,5.00,000.00,018.9,018.6,000.0,027.2,020.0,9.4,0000.0,0001.18,0002.41,0001.01
2024-01-11 03:19:00,SystemResetWarning,0811.6,5.00,000.00,018.9,018.4,000.0,027.2,020.0,9.4,0000.0,0001.14,0002.33,0000.98
2024-01-11 03:20:00,SystemResetWarning,0811.5,4.99,000.00,018.8,018.2,000.0,027.2,020.0,9.4,0000.0,0001.11,0001.94,0000.95
2024-01-11 03:21:00,SystemResetWarning,0811.5,4.99,000.00,018.8,018.1,000.0,027.2,020.0,9.4,0000.0,0001.12,0001.56,0000.95
2024-01-11 03:22:00,SystemResetWarning,0811.5,5.00,000.00,018.8,017.9,000.0,027.2,020.0,9.4,0000.0,0001.13,0001.62,0000.95
2024-01-11 03:23:00,SystemResetWarning,0811.4,5.01,000.00,018.8,017.8,000.0,027.2,020.0,9.5,0000.0,0001.14,0001.64,0000.95
2024-01-11 03:24:00,SystemResetWarning,0811.3,5.00,000.00,018.8,017.7,000.0,027.3,020.0,9.4,0000.0,0001.15,0001.73,0000.95
2024-01-11 03:25:00,SystemResetWarning,0811.3,5.00,000.00,018.7,017.6,000.0,027.3,020.0,9.4,0000.0,0001.15,0001.72,0000.95
2024-01-11 03:26:00,SystemResetWarning,0811.3,5.00,000.00,018.7,017.5,000.0,027.3,020.0,9.4,0000.0,0001.14,0001.63,0000.94
2024-01-11 03:27:00,SystemResetWarning,0811.3,5.00,000.00,018.7,017.4,000.0,027.3,020.0,9.4,0000.0,0001.16,0001.71,0000.92
2024-01-11 03:28:00,SystemResetWarning,0811.3,5.00,000.00,018.7,017.4,000.0,027.2,020.0,9.4,0000.0,0001.14,0001.69,0000.91
2024-01-11 03:29:00,SystemResetWarning,0811.3,4.99,000.00,018.7,017.3,000.0,027.2,020.0,9.4,0000.0,0001.14,0001.71,0000.89
2024-01-11 03:30:00,SystemResetWarning,0811.3,5.00,000.00,018.7,017.3,000.0,027.3,020.0,9.4,0000.0,0001.15,0001.77,0000.88
2024-01-11 03:31:00,SystemResetWarning,0811.3,5.00,000.00,018.7,017.2,000.0,027.3,020.0,9.4,0000.0,0001.14,0001.77,0000.87
2024-01-11 03:32:00,SystemResetWarning,0811.3,5.02,000.00,018.7,017.2,000.0,027.3,020.0,9.4,0000.0,0001.13,0001.77,0000.87
2024-01-11 03:33:00,SystemResetWarning,0811.3,5.00,000.00,018.7,017.8,000.0,027.2,020.4,9.4,0000.0,0001.10,0001.76,0000.86
2024-01-11 03:34:00,SystemResetWarning,0811.4,5.00,000.00,018.9,018.7,000.0,027.2,020.8,9.3,0000.0,0001.09,0001.72,0000.86
2024-01-11 03:35:00,SystemResetWarning,0811.3,5.00,000.00,019.0,019.0,000.0,027.2,020.6,9.3,0000.0,0001.08,0001.68,0000.85
2024-01-11 03:36:00,SystemResetWarning,0811.2,4.99,000.00,019.0,018.9,000.0,027.2,020.3,9.2,0000.0,0001.06,0001.62,0000.84
2024-01-11 03:37:00,SystemResetWarning,0811.3,4.99,000.00,018.9,018.7,000.0,027.2,020.1,9.3,0000.0,0001.06,0001.64,0000.82
2024-01-11 03:38:00,SystemResetWarning,0811.3,5.00,000.00,018.9,018.5,000.0,027.2,020.0,9.3,0000.0,0001.02,0001.54,0000.81
2024-01-11 03:39:00,SystemResetWarning,0811.3,5.01,000.00,018.9,018.3,000.0,027.2,020.0,9.3,0000.0,0001.00,0001.50,0000.80
2024-01-11 03:40:00,SystemResetWarning,0811.2,5.01,000.00,018.8,018.2,000.0,027.2,020.0,9.3,0000.0,0000.99,0001.52,0000.78
2024-01-11 03:41:00,SystemResetWarning,0811.3,5.00,000.00,018.8,018.0,000.0,027.3,020.0,9.3,0000.0,0000.97,0001.47,0000.76
2024-01-11 03:42:00,SystemResetWarning,0811.3,4.99,000.00,018.8,017.9,000.0,027.3,020.0,9.3,0000.0,0000.95,0001.45,0000.75
2024-01-11 03:43:00,SystemResetWarning,0811.3,5.00,000.00,018.8,017.9,000.0,027.3,020.0,9.3,0000.0,0000.96,0001.49,0000.74
2024-01-11 03:44:00,SystemResetWarning,0811.2,5.00,000.00,018.7,017.8,000.0,027.3,020.0,9.2,0000.0,0000.95,0001.43,0000.73
2024-01-11 03:45:00,SystemResetWarning,0811.2,5.00,000.00,018.7,017.8,000.0,027.3,020.0,9.2,0000.0,0000.95,0001.44,0000.71
2024-01-11 03:46:00,SystemResetWarning,0811.2,5.00,000.00,018.7,017.8,000.0,027.3,020.0,9.2,0000.0,0000.95,0001.47,0000.70
2024-01-11 03:47:00,SystemResetWarning,0811.2,5.00,000.00,018.7,017.8,000.0,027.3,020.0,9.2,0000.0,0000.94,0001.55,0000.69
2024-01-11 03:48:00,SystemResetWarning,0811.3,5.00,000.00,018.7,017.7,000.0,027.3,020.0,9.2,0000.0,0000.95,0001.58,0000.68
2024-01-11 03:49:00,SystemResetWarning,0811.3,5.01,000.00,018.7,017.7,000.0,027.3,020.0,9.1,0000.0,0000.92,0001.98,0000.68
2024-01-11 03:50:00,SystemResetWarning,0811.3,5.01,000.00,018.7,017.7,000.0,027.3,020.0,9.1,0000.0,0000.93,0002.57,0000.69
2024-01-11 03:51:00,SystemResetWarning,0811.3,5.00,000.00,018.7,017.7,000.0,027.3,020.0,9.1,0000.0,0000.92,0002.51,0000.69
2024-01-11 03:52:00,SystemResetWarning,0811.3,4.99,000.00,018.7,017.7,000.0,027.3,020.0,9.1,0000.0,0000.88,0002.43,0000.69
2024-01-11 03:53:00,SystemResetWarning,0811.3,5.00,000.00,018.7,017.7,000.0,027.3,020.0,9.1,0000.0,0000.90,0002.47,0000.70
2024-01-11 03:54:00,SystemResetWarning,0811.3,5.00,000.00,018.7,017.7,000.0,027.3,020.0,9.1,0000.0,0000.88,0002.41,0000.69
2024-01-11 03:55:00,SystemResetWarning,0811.3,4.99,000.00,018.7,017.7,000.0,027.3,020.0,9.0,0000.0,0000.88,0002.44,0000.69
2024-01-11 03:56:00,SystemResetWarning,0811.3,4.99,000.00,018.7,017.6,000.0,027.3,020.0,9.0,0000.0,0000.88,0002.45,0000.69
2024-01-11 03:57:00,SystemResetWarning,0811.3,5.01,000.00,018.7,017.5,000.0,027.3,020.0,9.0,0000.0,0000.86,0002.38,0000.69
2024-01-11 03:58:00,SystemResetWarning,0811.2,5.01,000.00,018.7,017.6,000.0,027.2,020.1,9.1,0000.0,0000.84,0002.26,0000.69
2024-01-11 03:59:00,SystemResetWarning,0811.3,5.00,000.00,018.8,018.3,000.0,027.2,020.5,9.1,0000.0,0000.84,0002.21,0000.69
